Change the Weather History Date:

Saturday, November 20, 2010

  Actual Average Record
Temperature  
Mean Temperature 51 °F 51 °F  
Max Temperature 63 °F 60 °F 78 °F (1943)
Min Temperature 39 °F 42 °F 17 °F (1951)
Degree Days  
Heating Degree Days 14 14  
Month to date heating degree days 220  
Since 1 July heating degree days 378  
Growing Degree Days 1 (Base 50)    
Moisture  
Dew Point 41 °F    
Average Humidity 69    
Maximum Humidity 93    
Minimum Humidity 43    
Precipitation  
Precipitation 0.00 in 0.15 in 2.00 in (1952)
Month to date precipitation 2.55  
Year to date precipitation 47.56  
Sea Level Pressure  
Sea Level Pressure 30.32 in    
Wind  
Wind Speed 1 mph (WSW)    
Max Wind Speed 8 mph    
Max Gust Speed -    
Visibility 9 miles    
Events      
T = Trace of Precipitation, MM = Missing Value Source: NWS Daily Summary

Daily Weather History Graph

Daily Weather History Graph

Search for Another Location

Airport or City:

Trip Planner

Search our weather history database for the weather conditions in past years. The results will help you decide how hot, cold, wet, or windy it might be!

Date:

Astronomy

Nov. 20, 2010 Rise Set
Actual Time 7:13 AM EST 5:28 PM EST
Civil Twilight 6:46 AM EST 5:55 PM EST
Nautical Twilight 6:15 AM EST 6:25 PM EST
Astronomical Twilight 5:45 AM EST 6:55 PM EST
Moon 4:36 PM EST (11/20) 6:10 AM EST (11/20)
Length of Visible Light 11h 09m
Length of Day
10h 15m
Waxing Gibbous, 99% of the Moon is Illuminated
Nov 20
Waxing Gibbous
Nov 21
Full
Nov 28
Last Quarter
Dec 5
New
Dec 13
First Quarter

Hourly Weather History & Observations

Time (EST) Temp. Windchill Dew Point Humidity Pressure Visibility Wind Dir Wind Speed Gust Speed Precip Events Conditions
12:53 AM 46.0 °F - 39.9 °F 79% 30.30 in 10.0 mi Calm Calm - N/A   Clear
1:53 AM 44.1 °F - 41.0 °F 89% 30.30 in 9.0 mi Calm Calm - N/A   Clear
2:53 AM 44.1 °F - 39.9 °F 85% 30.29 in 10.0 mi Calm Calm - N/A   Clear
3:53 AM 43.0 °F - 39.0 °F 86% 30.29 in 9.0 mi Calm Calm - N/A   Clear
4:53 AM 42.1 °F - 39.0 °F 89% 30.30 in 9.0 mi Calm Calm - N/A   Clear
5:53 AM 42.1 °F - 39.0 °F 89% 30.32 in 8.0 mi Calm Calm - N/A   Clear
6:53 AM 39.9 °F 36.7 °F 37.9 °F 93% 30.33 in 7.0 mi SE 4.6 mph - N/A   Clear
7:53 AM 42.1 °F - 39.0 °F 89% 30.35 in 6.0 mi Calm Calm - N/A   Clear
8:53 AM 51.1 °F - 44.1 °F 77% 30.36 in 8.0 mi Calm Calm - N/A   Scattered Clouds
9:53 AM 54.0 °F - 43.0 °F 66% 30.36 in 10.0 mi Calm Calm - N/A   Overcast
10:53 AM 57.0 °F - 42.1 °F 57% 30.36 in 10.0 mi WNW 3.5 mph - N/A   Overcast
11:53 AM 60.1 °F - 42.1 °F 51% 30.35 in 10.0 mi West 5.8 mph - N/A   Overcast
12:53 PM 61.0 °F - 42.1 °F 50% 30.33 in 10.0 mi West 5.8 mph - N/A   Overcast
1:53 PM 62.1 °F - 41.0 °F 46% 30.31 in 10.0 mi WSW 6.9 mph - N/A   Overcast
2:53 PM 63.0 °F - 39.9 °F 43% 30.30 in 10.0 mi WSW 8.1 mph - N/A   Partly Cloudy
3:53 PM 63.0 °F - 41.0 °F 45% 30.30 in 10.0 mi WSW 4.6 mph - N/A   Clear
4:53 PM 62.1 °F - 41.0 °F 46% 30.30 in 10.0 mi Calm Calm - N/A   Clear
5:53 PM 57.9 °F - 41.0 °F 53% 30.30 in 10.0 mi Calm Calm - N/A   Clear
6:53 PM 55.0 °F - 41.0 °F 59% 30.30 in 10.0 mi Calm Calm - N/A   Clear
7:53 PM 52.0 °F - 41.0 °F 66% 30.32 in 10.0 mi Calm Calm - N/A   Clear
8:53 PM 55.0 °F - 39.9 °F 57% 30.30 in 10.0 mi SE 3.5 mph - N/A   Clear
10:53 PM 48.0 °F - 41.0 °F 77% 30.32 in 10.0 mi Calm Calm - N/A   Clear
11:53 PM 46.9 °F - 44.1 °F 90% 30.32 in 7.0 mi Calm Calm - N/A   Clear